Flag for Sweden Weather past 2 weeks in Halmstad, Sweden

Now
63 °F

Scattered clouds.


Feels Like: 63 °F
Forecast: 49 / 58 °F
Wind: 9 mph from South

Location: Halmstad Swedish Air Force Base

Current Time: Sep 4, 2015 at 12:38:27 PM

Latest Report: Sep 4, 2015 at 11:50 AM


Visibility: N/A

Pressure: 29.86 "Hg

Humidity: 59%

Dew point: 48 °F

Location of HalmstadLocation

Historic Weather in Halmstad — Graph

°F

Halmstad temperature yesterday

Maximum temperature yesterday: 64 °F (at 1:20 PM)
Minimum temperature yesterday: 50 °F (at 11:20 PM)
Average temperature yesterday: 59 °F

Past Weeks' High & Low Weather Summary

 TemperatureHumidityPressure
High79 °F (Aug 23, 3:20 PM)94% (Aug 21, 4:20 AM)30.39 "Hg (Aug 21, 4:20 AM)
Low45 °F (Sep 4, 6:50 AM)25% (Aug 21, 5:20 PM)29.62 "Hg (Sep 1, 1:20 PM)
Average63 °F72%29.97 "Hg
* Reported Aug 20 11:20 AM — Sep 4 11:20 AM, Halmstad, Weather by CustomWeather, © 2015

Note: Actual official high and low records may vary slightly from our data, if they occured in-between our weather recording intervals... More about our weather records

Advertising

Halmstad weather history for previous 24 hours

 ConditionsComfort  
Time TempWeatherWind HumidityBarometerVisibility
11:20 AM
Fri, Sep 4
63 °FPassing clouds.7 mph64%29.86 "HgN/A
10:50 AM61 °FPassing clouds.6 mph63%29.86 "HgN/A
10:20 AM59 °FPassing clouds.6 mph77%29.86 "HgN/A
9:50 AM57 °FPassing clouds.3 mph82%29.86 "HgN/A
9:20 AM57 °FPassing clouds.3 mph77%29.86 "HgN/A
8:50 AM54 °FPassing clouds.3 mph82%29.86 "HgN/A
8:20 AM52 °FSunny.3 mph82%29.89 "Hg10 mi
7:50 AM50 °FSunny.2 mph88%29.89 "Hg10 mi
7:20 AM46 °FSunny.5 mph93%29.89 "Hg10 mi
6:50 AM45 °FClear.6 mph93%29.89 "Hg10 mi
6:20 AM46 °FClear.5 mph93%29.89 "Hg10 mi
5:50 AM46 °FCool.5 mph93%29.89 "Hg4 mi
5:20 AM46 °FCool.3 mph93%29.89 "Hg2 mi
4:50 AM46 °FCool.2 mph93%29.89 "HgN/A
4:20 AM46 °FPassing clouds.6 mph93%29.89 "HgN/A
3:50 AM46 °FPassing clouds.2 mph87%29.89 "HgN/A
3:20 AM48 °FPassing clouds.3 mph87%29.92 "HgN/A
2:50 AM48 °FCool.3 mph82%29.92 "HgN/A
2:20 AM48 °FCool.2 mph87%29.92 "HgN/A
1:50 AM50 °FCool.3 mph88%29.92 "Hg1 mi
1:20 AM48 °FCool.2 mph87%29.92 "Hg5 mi
12:50 AM50 °FCool.3 mph88%29.92 "HgN/A
12:20 AM50 °FCool.2 mph82%29.92 "HgN/A
11:20 PM
Thu, Sep 3
50 °FCool.3 mph88%29.92 "HgN/A
10:50 PM52 °FCool.5 mph82%29.92 "HgN/A
10:20 PM54 °FCool.7 mph82%29.92 "HgN/A
9:50 PM54 °FClear.6 mph82%29.92 "Hg10 mi
9:20 PM55 °FClear.7 mph77%29.92 "Hg10 mi
8:50 PM55 °FSunny.8 mph82%29.92 "Hg10 mi
8:20 PM57 °FSunny.9 mph77%29.92 "Hg10 mi
7:50 PM57 °FSunny.10 mph77%29.92 "Hg10 mi
7:20 PM59 °FSunny.13 mph77%29.89 "Hg10 mi
6:50 PM59 °FSunny.12 mph77%29.89 "Hg10 mi
6:20 PM61 °FSunny.14 mph68%29.89 "Hg10 mi
5:20 PM63 °FSunny.13 mph59%29.89 "Hg10 mi
4:50 PM63 °FSunny.12 mph59%29.89 "Hg10 mi
4:20 PM63 °FSunny.10 mph56%29.89 "Hg10 mi
3:50 PM63 °FSunny.10 mph52%29.89 "Hg10 mi
3:20 PM64 °FPassing clouds.8 mph52%29.89 "HgN/A
2:50 PM64 °FSunny.9 mph56%29.89 "Hg10 mi
2:20 PM64 °FPassing clouds.9 mph56%29.89 "HgN/A
1:50 PM64 °FScattered clouds.9 mph56%29.89 "HgN/A
1:20 PM64 °FScattered clouds.9 mph60%29.89 "HgN/A
12:50 PM63 °FScattered clouds.10 mph64%29.89 "HgN/A
12:20 PM63 °FScattered clouds.10 mph64%29.89 "HgN/A
Weather by CustomWeather, © 2015

See weather overviewHow to use our weather pages